CAPE
224 237 509 629 920 1513 1216 884 442 372 165 67 77 185 260 276 386 594 610 512 589 568 469 322 141 49 6 0 0 0 70 278 525 681 721 843 919 837 472 173 792 891 1021
337 174 351 550 836 1355 1260 829 515 463 234 121 173 365 277 346 548 715 512 353 288 228 95 3 0 0 0 0 0 0 0 40 141 265 262 343 614 733 823 644 1004 824 737
473 280 556 335 692 1192 1356 923 654 597 378 266 304 463 367 509 562 481 311 228 154 64 0 0 0 0 0 0 0 0 0 0 0 0 379 409 1 760 776 732 666 837 793
696 559 392 370 650 1025 1515 1101 974 825 668 374 459 538 420 607 455 313 237 190 98 42 0 0 0 0 0 0 0 0 0 0 0 0 0 0 0 122 783 966 800 752 825
709 592 466 590 433 927 1555 1286 1125 1019 982 668 676 629 570 657 391 313 230 93 37 0 0 0 0 0 0 0 0 0 0 0 0 0 0 9 32 0 145 637 664 685 708
434 639 919 621 274 828 1284 1591 1249 1194 1186 1016 838 741 621 647 490 328 110 25 21 0 0 0 0 0 0 0 0 0 0 0 0 31 73 0 227 0 23 434 663 1014 721
240 573 1149 397 588 634 1102 1499 1466 1375 1308 1211 1017 859 644 596 426 145 8 0 0 0 0 0 0 0 0 0 0 0 0 0 142 61 176 244 217 77 85 261 459 613 677
216 363 1532 459 765 543 804 1168 1381 1445 1333 1321 1199 998 800 549 250 45 0 0 0 0 0 0 0 0 0 0 0 0 0 0 27 72 113 281 99 0 242 259 576 629 661
266 289 1557 515 853 652 617 873 1179 1262 1272 1167 1105 999 764 412 115 15 0 0 0 0 0 0 0 0 0 0 0 0 0 0 14 79 59 155 311 95 89 528 442 503 530
256 223 893 344 627 666 750 725 805 993 1022 975 895 774 557 239 80 20 0 0 0 0 0 0 0 0 0 0 0 0 0 0 0 5 41 123 102 88 311 396 820 494 310
292 178 576 325 461 358 237 786 627 632 751 795 723 615 312 69 99 72 0 0 0 0 0 0 0 0 0 0 0 0 0 0 0 16 8 49 46 0 72 560 977 907 434
377 192 299 505 478 325 111 405 389 392 406 437 311 338 261 78 72 2 0 0 0 0 6 0 0 0 0 0 0 0 0 0 0 0 0 50 42 0 28 143 780 1103 704
415 237 167 644 789 385 149 295 307 237 283 348 316 387 302 107 111 121 85 41 31 5 0 0 0 0 0 0 0 2 19 0 0 0 0 51 34 5 119 249 577 986 965
205 283 143 633 745 782 220 227 389 129 327 299 338 534 577 314 391 477 194 209 244 53 25 0 12 12 4 0 0 0 0 0 0 0 0 17 0 0 116 473 655 938 1094
17 201 238 337 918 1134 1217 316 387 248 305 294 342 584 589 490 623 722 505 184 164 150 86 145 45 16 24 21 9 2 0 0 0 0 0 0 0 0 71 520 647 918 1386
12 86 193 249 795 1210 1357 1391 797 669 345 423 430 640 1099 819 896 535 519 330 226 104 94 89 128 87 46 17 8 23 34 10 0 0 0 0 0 0 0 78 731 1117 1484
0 10 302 393 414 1252 1614 1570 1331 727 662 604 620 903 1207 1383 876 727 385 379 282 222 318 206 165 115 77 30 40 29 42 68 57 8 0 0 0 0 0 0 22 906 1419
0 0 37 253 369 676 1226 1524 1364 955 824 569 684 682 911 1600 1151 938 463 393 315 210 203 395 333 86 92 133 160 159 202 189 120 139 157 114 93 9 8 0 0 278 951
0 0 268 706 653 1047 1076 1063 1172 914 593 515 450 582 862 1079 1192 1041 759 458 432 153 239 385 267 124 230 261 248 384 625 626 516 415 439 485 515 404 278 121 45 158 648
0 0 3 286 367 354 1097 1187 872 705 518 315 179 209 183 737 881 1008 693 514 246 226 211 359 250 346 432 526 598 681 931 909 798 891 860 896 922 1053 1143 894 651 863 744
0 0 0 4 1034 66 317 722 1032 593 423 302 244 203 266 460 651 692 663 371 268 97 458 579 536 474 804 1012 1164 1055 991 1275 1371 1343 1287 1296 1304 1339 1029 792 666 1017 1145
0 0 0 0 0 795 581 310 601 616 265 172 167 101 199 249 611 529 319 153 173 324 791 888 684 944 1365 1380 1362 914 351 512 1422 1597 1593 1514 1506 1299 1022 1055 1412 1428 1554
0 0 0 0 1 0 304 1486 1770 1821 1869 1316 638 235 306 358 558 239 399 19 211 500 1048 1274 1280 1581 1281 1405 1685 1214 218 89 303 1804 1858 1409 1442 1299 1652 1622 1468 1283 1432
0 0 0 0 0 9 10 12 301 306 570 1253 1899 1706 1044 1094 978 779 393 267 322 1243 1472 1819 2133 2131 2073 1352 1443 1889 1738 1480 745 462 1470 1453 1349 1384 1789 1387 1338 1365 1484
0 0 0 0 0 0 33 25 0 89 557 338 31 236 1714 1944 1557 1032 1027 1131 1586 1934 2121 2140 2577 2711 2153 1853 968 1484 1545 1587 1798 1811 1303 1114 1319 1064 1254 1682 1284 1301 1258
0 0 0 0 0 0 0 2 31 27 96 247 406 343 377 472 774 434 2094 2264 2540 2792 2699 2849 2785 2905 2459 2155 1880 1010 1035 1002 1119 1356 1352 1394 1221 1021 827 929 958 1019 997
CIN
-157 -483 -570 -486 -382 -247 -225 -236 -294 -274 -316 -348 -333 -254 -218 -209 -167 -131 -120 -121 -95 -103 -113 -146 -204 -205 -52 -0 -0 -0 -217 -124 -83 -61 -50 -19 -10 -17 -47 -117 -17 -2 -23
-168 -512 -599 -513 -406 -278 -240 -259 -270 -243 -286 -308 -253 -195 -214 -194 -157 -115 -140 -171 -167 -160 -238 -22 -0 -0 -0 -0 -0 -0 -0 -215 -188 -132 -123 -101 -40 -30 -19 -28 -13 -39 -48
-195 -461 -532 -549 -432 -309 -233 -254 -260 -238 -241 -232 -215 -187 -196 -183 -171 -171 -192 -190 -197 -239 -0 -0 -0 -0 -0 -0 -0 -0 -0 -0 -0 -0 -112 -22 -8 -32 -23 -27 -38 -29 -37
-236 -418 -461 -543 -451 -350 -224 -237 -211 -201 -194 -218 -204 -206 -215 -193 -205 -207 -223 -214 -267 -257 -0 -0 -0 -0 -0 -0 -0 -0 -0 -0 -0 -0 -0 -1 -0 -180 -44 -13 -32 -38 -31
-234 -389 -419 -535 -476 -372 -242 -238 -212 -191 -178 -203 -206 -216 -220 -202 -222 -228 -240 -279 -277 -0 -0 -0 -0 -0 -0 -0 -0 -0 -0 -0 -0 -0 -0 -62 -59 -0 -145 -64 -54 -54 -59
-221 -318 -410 -542 -497 -402 -281 -206 -210 -194 -183 -196 -215 -218 -229 -213 -217 -231 -274 -320 -324 -0 -0 -0 -0 -0 -0 -0 -0 -0 -0 -0 -0 -138 -77 -1 -60 -0 -204 -105 -67 -19 -71
-187 -259 -375 -548 -471 -431 -314 -203 -176 -179 -176 -185 -198 -215 -235 -227 -231 -300 -181 -0 -0 -0 -0 -0 -0 -0 -0 -0 -0 -0 -0 -0 -146 -46 -68 -58 -99 -174 -173 -140 -108 -75 -79
-168 -242 -279 -523 -476 -432 -373 -256 -181 -153 -171 -167 -168 -189 -208 -233 -264 -326 -0 -0 -0 -0 -0 -0 -0 -0 -0 -0 -0 -0 -0 -0 -134 -30 -74 -32 -170 -0 -147 -144 -98 -75 -80
-159 -249 -229 -448 -448 -442 -401 -317 -213 -169 -162 -180 -175 -181 -201 -249 -328 -386 -0 -0 -0 -0 -0 -0 -0 -0 -0 -0 -0 -0 -0 -0 -236 -70 -70 -65 -129 -190 -208 -122 -130 -103 -101
-156 -214 -202 -395 -407 -372 -355 -354 -295 -211 -192 -183 -203 -212 -236 -301 -368 -431 -0 -0 -0 -0 -0 -0 -0 -0 -0 -0 -0 -0 -0 -0 -0 -40 -111 -111 -174 -204 -145 -154 -91 -119 -146
-126 -207 -185 -319 -337 -331 -321 -315 -343 -301 -247 -218 -210 -237 -295 -350 -336 -349 -0 -0 -0 -0 -0 -0 -0 -0 -0 -0 -0 -0 -0 -0 -0 -131 -65 -182 -223 -0 -255 -126 -85 -75 -132
-107 -187 -173 -235 -259 -258 -257 -272 -321 -301 -288 -258 -256 -248 -294 -334 -283 -150 -0 -0 -0 -0 -416 -0 -0 -0 -0 -0 -0 -0 -0 -0 -0 -0 -0 -176 -216 -0 -299 -219 -95 -63 -95
-97 -121 -168 -185 -192 -220 -207 -220 -271 -287 -290 -257 -248 -221 -273 -293 -250 -266 -242 -288 -388 -408 -0 -0 -0 -0 -0 -0 -0 -41 -234 -0 -0 -0 -0 -185 -196 -118 -209 -171 -103 -70 -67
-161 -109 -142 -146 -173 -196 -186 -198 -190 -270 -243 -244 -249 -200 -176 -225 -187 -163 -193 -173 -226 -298 -352 -15 -309 -333 -361 -41 -0 -0 -0 -0 -0 -0 -0 -165 -0 -0 -204 -112 -88 -71 -53
-154 -151 -134 -157 -124 -147 -111 -154 -160 -199 -202 -220 -206 -209 -199 -196 -155 -149 -155 -152 -162 -171 -185 -214 -231 -233 -277 -314 -293 -88 -0 -0 -0 -0 -0 -0 -0 -0 -218 -102 -76 -64 -31
-258 -168 -169 -136 -79 -116 -112 -67 -153 -166 -181 -189 -165 -173 -183 -187 -147 -170 -184 -161 -150 -150 -165 -164 -202 -203 -256 -219 -274 -281 -310 -221 -0 -0 -0 -0 -0 -0 -0 -198 -63 -46 -22
-14 -363 -150 -114 -144 -99 -78 -75 -79 -177 -157 -188 -168 -170 -173 -194 -185 -193 -172 -164 -160 -164 -166 -222 -223 -260 -288 -270 -240 -261 -267 -267 -268 -143 -0 -0 -0 -0 -0 -0 -37 -53 -24
-0 -155 -311 -92 -99 -119 -74 -75 -104 -166 -161 -147 -168 -165 -227 -201 -211 -210 -189 -171 -185 -206 -187 -222 -255 -296 -268 -213 -211 -199 -183 -196 -193 -152 -147 -130 -116 -23 -27 -0 -0 -156 -47
-0 -0 -177 -81 -72 -75 -107 -105 -119 -138 -154 -172 -179 -165 -182 -236 -223 -230 -214 -218 -264 -285 -242 -250 -264 -229 -189 -189 -176 -138 -142 -141 -111 -67 -57 -65 -70 -85 -84 -121 -215 -186 -70
-0 -0 -115 -223 -155 -125 -75 -64 -99 -141 -187 -243 -181 -214 -207 -223 -237 -282 -267 -312 -339 -317 -331 -311 -290 -198 -190 -135 -115 -84 -83 -102 -75 -50 -12 -19 -19 -20 -21 -21 -58 -55 -51
-0 -0 -0 -96 -93 -228 -119 -95 -27 -138 -189 -216 -202 -164 -238 -234 -280 -309 -354 -374 -391 -338 -323 -304 -258 -269 -149 -143 -111 -89 -94 -55 -80 -53 -12 -3 -2 -2 -18 -43 -37 -1 -22
-0 -0 -0 -0 -0 -105 -133 -145 -146 -115 -231 -303 -240 -217 -217 -271 -339 -353 -415 -355 -300 -252 -257 -265 -281 -179 -145 -106 -95 -71 -73 -73 -22 -35 -20 -5 -1 -2 -6 -10 -1 -1 -3
-0 -0 -0 -0 -89 -0 -167 -15 -6 -15 -42 -147 -136 -153 -151 -188 -311 -396 -430 -372 -272 -209 -160 -233 -232 -201 -87 -74 -78 -89 -91 -82 -42 -6 -17 -23 -7 -9 -11 -1 -1 -13 -1
-0 -0 -0 -0 -0 -259 -256 -294 -159 -88 -154 -94 -31 -39 -71 -159 -196 -325 -450 -361 -273 -154 -149 -94 -162 -157 -146 -55 -13 -102 -111 -85 -72 -41 -11 -6 -4 -2 -4 -1 -2 -4 -2
-0 -0 -0 -0 -0 -0 -315 -323 -8 -204 -128 -226 -162 -74 -13 -29 -193 -107 -220 -306 -199 -133 -81 -123 -92 -141 -106 -108 -50 -47 -66 -66 -23 -0 -2 -3 -4 -12 -6 -15 -4 -4 -3
-0 -0 -0 -0 -0 -0 -0 -146 -277 -238 -182 -109 -31 -26 -49 -193 -224 -121 -5 -177 -131 -103 -131 -93 -83 -82 -133 -58 -91 -62 -29 -12 -4 -6 -4 -1 -3 -7 -19 -6 -9 -1 -3
Wind_Speed
8 15 21 21 21 22 22 23 24 23 24 26 27 27 28 28 28 29 29 29 28 27 27 26 25 25 25 24 25 25 25 25 25 24 24 24 23 22 22 20 19 18 18
8 12 20 20 20 22 24 25 26 25 26 28 29 29 30 29 30 30 29 29 28 27 26 26 25 24 24 24 24 24 24 24 24 24 23 24 23 22 21 21 23 20 19
5 10 19 20 20 22 24 27 27 27 27 29 30 30 30 30 30 30 29 28 27 26 25 24 24 23 24 23 23 23 23 23 23 22 21 19 24 21 20 20 20 20 19
3 7 14 20 21 22 25 27 27 28 28 29 28 28 29 28 28 28 28 26 26 25 25 24 23 23 23 23 22 22 22 21 20 19 17 21 23 22 20 19 19 19 18
4 7 12 24 22 22 23 25 26 27 28 28 28 28 28 28 27 26 26 25 25 24 23 23 22 22 22 21 21 20 20 19 17 16 18 20 20 21 21 19 17 17 17
9 2 12 21 21 21 21 22 24 25 26 26 27 27 26 26 25 25 24 23 23 22 22 21 21 21 21 20 19 18 18 16 14 14 18 19 19 20 20 18 18 18 17
12 9 8 16 18 20 20 16 17 21 24 24 25 24 24 23 23 22 21 20 20 20 20 19 19 19 19 18 17 16 15 13 11 14 15 15 18 17 17 17 17 16 15
16 12 9 15 15 17 18 16 16 14 18 20 21 21 21 21 20 19 19 18 17 17 17 17 17 16 16 15 14 13 12 11 10 13 12 12 15 14 13 14 14 15 15
16 11 12 14 14 13 15 15 14 11 11 15 17 18 17 17 17 17 16 15 15 15 14 14 14 14 13 12 12 10 10 9 8 7 9 8 11 12 10 10 11 12 13
15 13 12 14 14 14 13 12 13 10 7 7 11 14 13 13 14 14 13 13 12 12 12 11 11 11 11 10 9 8 7 6 5 5 7 10 11 10 9 7 7 9 10
17 14 14 14 14 14 13 11 10 9 7 5 5 7 9 12 11 11 11 10 9 9 9 9 8 8 8 7 6 6 6 5 3 4 6 8 9 9 6 5 5 6 7
21 16 15 15 15 14 13 11 12 10 9 9 8 9 10 9 7 8 8 6 6 7 7 6 6 6 5 4 5 5 5 3 2 5 5 9 9 9 6 4 3 3 4
25 21 18 17 19 17 14 13 13 11 9 9 9 8 8 5 2 2 4 4 4 4 5 5 4 4 3 3 5 6 7 6 4 6 7 8 9 8 6 3 2 1 2
24 27 22 17 23 21 22 17 16 15 11 9 9 8 5 4 4 5 2 4 6 4 5 3 4 4 3 3 4 5 7 6 8 9 10 8 9 8 5 4 3 1 2
25 23 27 24 25 26 22 26 23 20 15 13 11 10 9 7 9 7 9 6 8 8 6 7 5 6 5 4 5 6 7 7 9 9 11 9 8 7 6 5 3 2 1
26 26 28 29 25 24 30 25 30 25 20 17 19 14 13 11 10 8 10 9 11 10 8 8 7 8 6 5 6 9 10 11 11 11 9 10 6 6 5 5 5 4 2
25 26 27 31 28 28 27 37 27 31 29 22 24 22 17 17 15 9 13 8 9 8 10 9 10 14 10 9 10 11 14 13 13 12 10 8 8 4 5 6 6 5 4
26 24 28 27 29 30 29 30 34 34 34 30 27 28 25 21 20 16 15 15 12 8 13 11 15 13 17 11 11 12 16 16 15 13 10 8 8 6 5 5 4 6 5
27 25 24 24 27 27 28 31 37 36 30 35 33 33 23 22 22 21 16 12 11 11 14 15 9 7 10 13 13 14 17 17 17 14 10 8 7 7 9 6 4 4 5
28 26 27 29 36 35 29 31 35 34 37 36 34 27 34 27 25 19 21 14 7 8 11 10 8 5 10 15 15 17 19 17 17 16 11 9 8 7 8 8 6 3 4
27 26 26 27 28 36 44 36 36 37 40 35 36 35 34 23 19 18 16 11 12 12 10 9 8 8 13 13 16 18 20 17 15 14 13 9 7 6 9 7 4 5 3
31 27 27 25 26 26 33 43 40 38 33 34 38 36 38 28 23 24 17 14 21 12 11 9 11 11 14 14 16 20 24 24 16 11 10 9 7 10 9 6 8 7 8
34 32 31 29 26 26 28 29 39 38 34 36 39 38 39 26 25 26 22 19 19 15 13 12 11 12 15 13 10 17 24 25 25 15 11 10 10 10 13 11 7 6 6
33 33 32 31 31 30 29 30 32 37 38 35 40 43 41 31 26 28 26 24 16 13 15 14 14 12 13 16 13 14 17 21 25 21 13 12 11 12 11 8 8 8 8
27 32 30 30 33 34 33 32 32 34 30 35 46 49 39 23 24 38 44 18 17 15 15 15 14 12 13 12 16 16 18 18 18 18 16 14 11 11 11 8 8 8 6
21 22 28 30 31 34 35 34 33 34 34 33 32 34 25 27 30 34 22 17 14 15 17 16 15 14 15 14 14 17 16 19 21 15 14 15 14 12 11 7 11 9 11
Wind_Direction
41 97 110 109 105 110 112 112 112 109 107 107 107 103 104 100 98 98 99 97 97 93 92 89 83 78 72 67 66 64 65 66 66 65 64 63 61 58 54 53 52 53 51
66 100 111 110 109 114 118 119 118 115 113 114 113 111 110 104 105 106 102 100 97 94 93 88 81 77 73 73 73 71 71 72 71 70 73 69 62 59 58 54 38 46 53
48 104 118 114 114 118 122 124 122 120 116 118 118 116 114 109 109 108 105 101 98 96 93 88 80 75 78 80 79 79 79 78 77 80 84 79 59 61 61 59 51 49 57
19 104 119 124 122 121 125 127 125 124 121 121 117 115 115 112 110 109 106 103 101 99 95 90 87 80 84 86 86 87 83 82 83 86 85 69 62 61 62 63 60 64 65
312 117 125 137 128 126 126 127 128 127 125 124 122 121 120 117 112 110 107 106 104 100 95 91 90 87 86 88 88 87 88 88 90 85 75 67 63 60 61 66 68 66 68
276 181 137 140 134 131 129 129 129 129 128 127 125 125 122 119 116 113 108 106 106 99 96 95 91 88 86 87 87 88 90 93 92 85 68 66 59 59 61 64 58 55 56
263 242 165 148 140 136 134 129 128 129 131 129 129 126 124 121 118 113 109 104 103 99 97 96 95 93 89 88 89 88 90 93 92 71 68 64 57 58 64 64 63 63 65
255 237 207 159 153 144 139 137 133 131 130 131 129 128 127 123 119 116 112 104 101 99 95 97 97 96 92 89 89 92 89 89 81 67 67 65 56 59 66 68 66 63 60
250 214 220 177 166 160 150 145 140 138 134 130 129 130 127 124 120 117 115 105 98 98 91 94 95 91 86 88 87 88 83 80 74 69 59 65 58 52 66 73 72 64 60
245 219 209 181 177 173 166 161 152 150 155 139 131 129 124 121 118 117 114 112 101 98 95 95 91 86 82 78 79 79 75 72 68 52 54 44 48 41 46 76 82 68 62
244 224 215 203 191 189 181 181 177 172 172 173 155 133 127 130 126 121 125 111 101 95 87 77 81 80 82 73 72 66 59 58 61 58 44 48 33 28 35 56 88 75 68
248 229 220 210 212 203 198 199 200 188 175 168 164 151 146 138 123 128 120 101 91 94 90 88 72 67 74 81 62 60 41 38 16 21 19 26 18 15 16 33 75 91 81
250 241 230 220 227 218 213 214 220 221 209 186 182 174 163 153 124 86 71 76 65 98 114 99 71 64 86 60 40 45 35 35 15 4 4 13 6 2 2 10 27 86 112
258 245 238 226 232 231 234 228 230 230 226 222 212 212 227 227 280 316 27 28 21 67 66 84 52 54 72 34 15 6 2 358 354 354 356 360 353 349 341 336 341 335 170
266 245 245 242 238 238 245 237 239 236 237 238 238 231 238 250 279 296 310 329 338 356 10 14 25 21 28 18 1 351 346 342 343 342 343 348 346 343 323 310 293 309 216
264 260 250 241 240 240 243 252 239 242 243 245 253 249 243 258 273 287 301 311 317 327 348 358 9 1 5 1 353 348 346 345 342 340 334 339 327 325 317 290 270 268 248
268 263 255 248 241 243 249 241 249 244 246 250 254 256 256 259 269 275 292 300 308 322 332 346 353 340 347 351 346 346 345 345 343 337 332 331 334 300 315 295 254 261 253
267 271 259 247 246 244 245 247 249 245 247 253 255 256 256 262 267 276 285 291 300 309 314 326 330 335 332 347 345 347 345 346 346 342 337 335 334 330 308 293 254 241 256
268 269 264 256 248 248 248 252 248 252 255 254 257 256 260 260 266 270 281 285 291 299 307 323 325 336 341 342 340 342 343 347 348 345 338 338 336 331 336 332 243 247 248
266 271 268 265 254 248 252 254 253 253 254 255 257 254 262 264 264 264 274 280 265 275 308 307 317 312 325 335 338 338 340 343 348 346 337 339 336 334 337 333 345 309 250
268 268 269 270 273 251 248 254 255 253 255 256 258 259 265 265 253 260 272 258 282 290 276 289 300 309 324 332 335 333 336 333 338 346 341 339 333 334 344 341 332 322 308
264 266 269 272 273 269 252 252 258 263 257 256 259 264 263 258 259 259 257 266 285 276 263 268 291 296 314 322 330 335 338 344 337 341 349 343 328 342 344 346 349 338 328
261 262 268 270 273 270 265 259 252 258 262 263 261 266 263 257 257 257 248 264 273 262 257 265 281 285 304 311 308 329 339 339 345 348 345 345 343 341 339 337 331 327 325
266 264 264 267 270 272 269 266 269 261 261 265 264 263 267 259 262 264 257 262 248 248 253 273 288 287 298 305 310 315 319 330 337 334 341 345 342 340 336 336 332 329 326
277 267 272 272 267 270 269 270 271 269 268 264 256 262 256 247 267 265 264 247 264 242 262 278 287 284 295 286 305 316 325 330 332 328 321 332 340 341 345 354 355 355 343
288 286 276 273 275 272 271 269 269 269 267 267 266 259 268 268 263 277 240 253 249 257 278 282 280 286 288 293 301 312 316 325 331 328 324 324 321 331 343 348 352 347 346